Home > Weather > Rankin Inlet > Past weeks

Flag for Canada Weather for the Past 2 Weeks in Rankin Inlet, Nunavut, Canada

Now
21 °F

Broken clouds.


Feels Like: 6 °F
Forecast: 17 / 32 °F
Wind: 18 mph from South

Location: Rankin Inlet

Current Time: May 1, 2016 at 9:09:41 AM

Latest Report: May 1, 2016 at 8:00 AM


Visibility: 10 mi

Pressure: 30.19 "Hg

Humidity: 93%

Dew Point: 19 °F

Location of Rankin InletLocation

Historic Weather in Rankin Inlet — Graph

°F

Rankin Inlet Temperature Yesterday

Maximum temperature yesterday: 32 °F (at 2:00 PM)
Minimum temperature yesterday: 21 °F (at 11:00 PM)
Average temperature yesterday: 27 °F

High & Low Weather Summary for the Past Weeks

 TemperatureHumidityPressure
High32 °F (Apr 30, 2:00 PM)93% (Apr 19, 3:00 AM)30.60 "Hg (Apr 19, 3:00 AM)
Low-13 °F (Apr 21, 6:00 AM)55% (Apr 29, 5:00 PM)29.17 "Hg (Apr 19, 9:00 PM)
Average8 °F78%30.26 "Hg
* Reported Apr 16 7:00 AM — May 1 7:00 AM, Rankin Inlet, Weather by CustomWeather, © 2016

Note: Actual official high and low records may vary slightly from our data, if they occured in-between our weather recording intervals... More about our weather records

Advertising

Rankin Inlet Weather History for the Previous 24 Hours

Scroll right to see more
 ConditionsComfort  
Time TempWeatherWind HumidityBarometerVisibility
7:00 AM
Sun, May 1
19 °FPartly sunny.14 mph86%30.22 "Hg15 mi
6:00 AM19 °FScattered clouds.17 mph86%30.24 "Hg15 mi
5:00 AM19 °FPassing clouds.15 mph86%30.27 "Hg15 mi
4:00 AM19 °FPassing clouds.14 mph86%30.29 "Hg15 mi
3:00 AM19 °FPassing clouds.13 mph86%30.33 "Hg15 mi
2:00 AM19 °FPassing clouds.13 mph86%30.35 "Hg15 mi
1:00 AM21 °FPassing clouds.12 mph86%30.37 "Hg15 mi
12:00 AM23 °FPassing clouds.13 mph86%30.38 "Hg15 mi
11:00 PM
Sat, Apr 30
21 °FPassing clouds.10 mph93%30.39 "Hg15 mi
10:00 PM25 °FPassing clouds.13 mph86%30.41 "Hg15 mi
9:00 PM27 °FPassing clouds.10 mph80%30.42 "Hg15 mi
8:00 PM28 °FPassing clouds.9 mph74%30.42 "Hg15 mi
7:00 PM30 °FPassing clouds.8 mph69%30.44 "Hg15 mi
6:00 PM30 °FPassing clouds.10 mph69%30.45 "Hg15 mi
5:00 PM30 °FPassing clouds.13 mph80%30.47 "Hg15 mi
4:00 PM30 °FPassing clouds.15 mph80%30.47 "Hg15 mi
3:00 PM30 °FScattered clouds.13 mph80%30.48 "Hg15 mi
2:00 PM32 °FScattered clouds.10 mph60%30.49 "Hg15 mi
1:00 PM30 °FPartly sunny.8 mph59%30.49 "Hg15 mi
12:00 PM30 °FPartly sunny.7 mph75%30.49 "Hg15 mi
11:00 AM28 °FPartly sunny.5 mph80%30.50 "Hg15 mi
10:00 AM27 °FPartly sunny.6 mph80%30.50 "Hg15 mi
9:00 AM27 °FPartly sunny.5 mph80%30.51 "Hg15 mi
Weather by CustomWeather, © 2016

See weather overviewHow to use our weather pages